Location: Astronight Observatory
(42.6003°N, 71.2981°W)
Time: 15:47:15
(UTC-05:00)

Daily predictions for brighter satellites

Satellite Brightness Start Highest point End
(mag) Time Altitude Azimuth Time Altitude Azimuth Time Altitude Azimuth
CSL-04 Rocket 3.8 16:39:58 10° SSE 16:45:16 58° ENE 16:50:40 10° N
Cosmos 158 Rocket 4.4 16:41:14 10° N 16:46:00 38° ENE 16:50:37 10° SE
USA 215 3.3 16:40:13 10° ESE 16:46:43 74° NE 16:53:15 10° NW
Hubble Space Telescope 3.7 16:47:16 10° SSW 16:48:12 11° S 16:49:08 10° S
Cosmos 1634 Rocket 4.4 16:42:33 10° SSW 16:48:44 70° W 16:55:01 10° N
Meteor 1-28 Rocket 4.0 16:46:51 10° NNE 16:50:15 32° E 16:53:40 10° SSE
CZ-4 R/B 2.0 16:47:08 10° SE 16:50:36 32° ENE 16:54:10 10° N
Cosmos 1697 Rocket 3.9 16:50:36 10° SSE 16:54:50 22° E 16:59:03 10° NE
Meteor 1-19 Rocket 4.3 16:52:56 10° S 16:58:30 60° E 17:04:12 10° NNE
Cosmos 2150 Rocket 4.5 16:53:27 10° SSW 16:58:53 69° WNW 17:04:20 10° NNE
Cosmos 1743 2.6 16:56:05 10° N 16:59:58 75° E 17:03:51 10° SSE
Cosmos 2082 3.8 17:00:21 10° NNW 17:05:51 52° ENE 17:11:19 10° SE
Cosmos 2266 Rocket 4.1 17:04:01 10° N 17:09:55 49° ENE 17:15:52 10° SSE
Cosmos 1655 Rocket 4.2 17:03:41 10° N 17:10:05 81° W 17:16:29 10° S
CENTAUR R/B 3.9 17:04:40 10° NNW 17:11:04 28° NNE 17:17:18 12° E
Abrixas rocket 3.3 17:09:50 10° WNW 17:12:49 32° N 17:14:55 16° NE
PSLV R/B 3.5 17:13:50 10° WSW 17:16:57 55° S 17:19:07 17° E
Cosmos 2227 Rocket 2.1 17:12:01 10° NNW 17:17:42 80° ENE 17:23:22 10° SSE
Landsat 4 4.4 17:14:52 11° NNE 17:18:19 34° E 17:21:47 10° SSE
CZ-2C R/B 4.5 17:14:25 10° SSW 17:19:03 33° W 17:23:42 10° NNW
ISS -2.5 17:16:47 10° WNW 17:19:55 43° SW 17:23:03 10° SSE
SPOT 3 Rocket 4.2 17:15:37 10° SE 17:20:10 32° ENE 17:24:43 10° N
ERS-2 3.0 17:19:27 10° SE 17:22:37 28° ENE 17:25:48 10° N
Cosmos 1455 Rocket 3.2 17:18:16 10° N 17:22:42 77° W 17:27:03 10° S
CORIOLIS 4.1 17:17:31 10° SSE 17:22:56 88° ENE 17:28:22 10° NNW
Cosmos 1544 Rocket 4.0 17:22:38 10° NNW 17:26:57 63° W 17:31:13 10° S
Ariane Rocket 3.4 17:23:59 10° S 17:29:00 68° WSW 17:34:03 10° NNW
Cosmos 1271 Rocket 3.9 17:26:36 10° NNW 17:30:15 46° W 17:33:57 10° SSW
Meteor 2-9 Rocket 4.1 17:25:01 10° N 17:30:33 83° E 17:35:55 10° SSE
MOS 1 4.4 17:25:44 10° SE 17:31:13 52° ENE 17:36:43 10° N
YAOGAN 1 2.5 17:28:39 10° SSE 17:32:57 71° ENE 17:37:17 10° N
USA 116 3.0 17:30:22 12° NNE 17:33:18 79° E 17:36:23 10° S
CZ-4 R/B 4.3 17:31:27 10° SSE 17:35:34 71° ENE 17:39:41 10° N
Cosmos 1980 Rocket 3.1 17:30:57 10° SSE 17:35:41 28° ESE 17:37:46 22° ENE
Meteor 1-23 Rocket 4.3 17:31:01 10° S 17:36:39 59° E 17:42:14 10° NNE
USA 238 DEB 4.1 17:32:11 10° NW 17:39:15 69° WSW 17:46:23 10° SSE
Cosmos 1269 Rocket 3.9 17:33:57 10° NNW 17:39:17 71° ENE 17:44:33 10° SSE
USA 238 4.1 17:32:17 10° NW 17:39:21 70° WSW 17:46:29 10° SSE
Cosmos 1125 Rocket 3.5 17:36:34 10° SSW 17:41:52 88° WNW 17:47:09 10° NNE
Gblst 52 Del rocket 4.4 17:36:34 10° NW 17:42:06 58° NNE 17:46:02 22° E
Cosmos 2297 Rocket 2.4 17:38:39 10° NNW 17:44:18 75° WSW 17:49:56 10° SSE
Atlas Centaur 2 4.2 17:42:19 10° SW 17:45:25 15° SSW 17:48:11 10° SSE
COSMO-SKYMED 1 2.5 17:44:35 13° NNE 17:48:28 69° ESE 17:52:47 10° S
CZ-2C R/B 4.0 17:45:02 10° N 17:49:42 71° WNW 17:54:25 10° SSW
Cosmos 1048 Rocket 4.2 17:44:25 10° NNW 17:49:50 77° WSW 17:55:11 10° SSE
Cosmos 1656 3.6 17:44:53 10° SSW 17:50:29 86° WNW 17:55:05 15° NNE
IRS-1A Rocket 4.5 17:45:22 10° S 17:50:57 73° WSW 17:56:29 10° NNW
SJ 16-02 1.7 17:49:55 10° SSW 17:54:15 64° WNW 17:58:00 14° N
MONITOR-E 4.0 17:54:29 10° SSE 17:57:30 88° E 18:00:35 10° NNW
Cosmos 372 Rocket 4.3 17:53:19 10° SSW 17:58:29 66° WNW 18:03:11 13° NNE
Meteor 2-11 Rocket 4.3 17:58:22 10° S 18:04:27 70° E 18:10:35 10° NNE
Cosmos 1553 Rocket 4.4 17:59:56 10° SSE 18:05:47 40° E 18:07:53 31° NE
NOSS 3-2 (A) 4.1 18:00:34 10° NW 18:08:09 79° WSW 18:16:22 10° SSE
Meteor 2-4 Rocket 4.5 18:03:00 10° SSW 18:08:14 49° WNW 18:13:27 10° N
RESURS DK-1 3.8 18:06:18 10° S 18:08:20 23° SSE 18:08:20 23° SSE
SL-24 R/B - RUBIN 2 4.3 18:07:00 10° SSW 18:13:09 63° ESE 18:14:58 43° ENE
NOAA 12 4.0 18:08:18 10° SSE 18:13:35 90° W 18:18:52 10° NNW
NOSS 3-2 (C) 4.0 18:08:13 10° NW 18:15:49 89° SW 18:24:05 10° SSE
Okean 1-7 Rocket 3.4 18:11:45 10° S 18:16:06 71° E 18:16:45 60° NE
ALOS 2.4 18:12:06 10° S 18:16:46 76° WSW 18:21:28 10° NNW
SL-16 R/B 4.2 18:12:57 10° SE 18:13:29 12° SE 18:13:29 12° SE
DELTA 2 R/B (1) 3.9 18:12:33 10° W 18:18:01 59° S 18:20:00 38° SE
Cosmos 1025 Rocket 3.0 18:13:57 10° S 18:18:15 81° W 18:19:59 36° N
Cosmos 2263 Rocket 4.1 18:16:27 10° N 18:17:42 15° N 18:17:42 15° N
ATLAS 3B R/B 4.1 18:16:00 10° NW 18:21:54 35° WSW 18:27:40 10° S
Cosmos 2322 Rocket 4.3 18:17:56 10° SSE 18:18:21 12° SE 18:18:21 12° SE
FENGYUN 3A 3.8 18:17:23 10° S 18:22:45 74° WSW 18:28:08 10° NNW
ATLAS 2AS CENTAUR R/B 4.2 18:15:55 10° WSW 18:23:07 36° NW 18:29:08 15° NNE
Cosmos 2360 4.1 18:18:17 10° S 18:23:55 64° ESE 18:24:59 53° ENE
CZ-4 R/B 4.1 18:22:57 10° SW 18:25:44 19° W 18:28:34 10° NW
Cosmos 2084 3.6 18:29:04 10° SW 18:32:45 66° WSW 18:32:45 66° WSW
EO 1 Del DPAF 4.5 18:33:38 31° NNW 18:34:46 40° WNW 18:38:21 10° SW
DNEPR-1 R/B 4.0 18:29:47 10° NNW 18:34:56 81° ENE 18:36:20 54° SE
Cosmos 1697 Rocket 3.3 18:32:50 10° SW 18:38:22 54° WNW 18:41:05 29° N
NOSS 3-4 (A) 3.7 18:37:30 10° SW 18:43:41 66° NW 18:45:48 42° NNE
NOSS 3-4 (C) 3.7 18:37:35 10° SW 18:43:46 67° NW 18:45:51 43° NNE
Gbstr 26 Del rocket 4.4 18:49:37 10° WSW 18:57:29 63° NNW 18:58:45 55° NNE
CENTAUR R/B 3.0 18:54:59 10° NW 19:02:57 82° NE 19:04:35 62° SE
S3M 4.2 19:11:15 10° SSW 19:17:04 65° W 19:17:04 65° W
Cosmos 1980 Rocket 3.1 19:14:02 10° SW 19:19:26 44° WNW 19:19:35 44° NW
Cosmos 2344 4.3 19:35:55 10° SSW 19:40:35 42° SSW 19:40:35 42° SSW
